FENGYUN 1C DEB, 36274

Orbit data source: Space-Track

FENGYUN 1C DEB, 36274 is space debris in SSO originally from a launch on Mon, 10 May 1999 UTC launched from the Taiyaun Space Center, China (TSC). Fengyun 1C debris stems from the Chinese weather satellite Fengyun-1C, which was intentionally destroyed by a Chinese anti-satellite missile in 2007. This event dramatically increased the amount of space debris, with thousands of trackable fragments posing hazards to satellites and human spaceflight. The Fengyun 1C debris cloud has become a focal point in discussions about space sustainability and the need for international regulations to prevent the creation of new debris.

Loading next visibility...
Identifier
36274, 1999-025DXB
Orbit
SSO
Country
Flag of CNCN / PRC
Related business
Manufacturer
Unknown
Mission
Spacecraft
Bus & Motor
Unknown
Mass
Unknown
Launch date (UTC)
1999-05-10 (27 years ago)
Launch vehicle
Unknown
Launch site
Taiyaun Space Center, China (TSC)
Object type
Payload
Rocket body
Debris
Shape & HBR
Unknown shape, 0.1 m
Radar Cross Section
Small (<0.1 m²)

Expand to show TLE details & history
Last TLE update: 1 week ago

TLE from 1 week ago
0 FENGYUN 1C DEB
1 36274U 99025DXB 26246.48159931  .00003225  00000-0  13355-2 0  9998
2 36274  99.1352 336.4242 0060567 190.9721 231.1267 14.26364718667564
Epoch: 2026-09-03T11:33Z
TLE epoch observation values (Epoch: 2026-09-03T11:33:30.180Z)
Latitude
60.34331°
Longitude
164.11389°
Altitude
841.604 km
Speed
7.423 km/s
True Right ascension
21h 20m 26s
True Declination
60° 11' 49"
Sunlit
Object was in daylight at epoch
Visualization orbit readout
Latitude
Unknown
Longitude
Unknown
Altitude
Unknown
Speed
Unknown
Apparent Right ascension
Unknown
Apparent Declination
Unknown
Sunlit
N/A
Visualization observer readout
Local Sidereal Time
15:30:30
Azimuth
Unknown
Elevation
Unknown
Doppler factor
Unknown
Orbital elements
Apogee altitude
844.561 km
Perigee altitude
757.596 km
Semi-major axis
7,179.216 km
Eccentricity
0.00606
Inclination
99.1352°
RAAN
336.4242°
Arg. of periapsis
190.9721°
True anomaly
230.58892°
Mean anomaly
231.1267°
Eccentric anomaly
230.85756°
Mean motion
3.56802 °/min
Orbital period
100.9 mins
BSTAR
0.0013355
Loading maneuver chart data...
Computing Atmospheric mass density...
Loading historical data...
Loading historical data...
Loading historical data...
Loading historical data...
Loading historical data...
Loading historical data...
Loading historical data...

Documentation

Showing up to 5 results
|